Location: Oslo
(59.9170°N, 10.7500°E)
Time: 23:08:26
(UTC+02:00)

ISS - Pass Details

Date: 01 April 2019
Orbit: 408 x 410 km, 51.6° (Epoch: 21 April)

Event Time Altitude Azimuth Distance (km) Brightness Sun altitude
Rises 21:45:30 0° 260° (W) 2,340 0.8 -13.0°
Reaches altitude 10° 21:48:24 10° 232° (SW) 1,476 -0.8 -13.3°
Maximum altitude 21:50:03 13° 202° (SSW) 1,293 -1.4 -13.4°
Enters shadow 21:51:08 12° 181° (S) 1,372 -1.5 -13.5°
